User: anonymous   Login
Location: Unspecified
(0.0000°N, 0.0000°E)
Time: 20:47:35
(UTC+00:00)
Language:

NUSTAR - Orbit

View from above orbital plane
View from above orbital plane
View from above satellite
View from above satellite

Ground track
Ground track

The orbit data is extracted from the following two-line orbital elements,

1 38358U 12031A   18343.42717183 +.00000941 +00000-0 +24837-4 0  9998
2 38358 006.0279 347.2952 0011639 159.5773 200.4822 14.88075456353043
Epoch (UTC): 09 December 2018 10:15:07
Eccentricity: 0.0011639
inclination: 6.0279°
perigee height: 596 km
apogee height: 612 km
right ascension of ascending node: 347.2952°
argument of perigee: 159.5773°
revolutions per day: 14.88075456
mean anomaly at epoch: 200.4822°
orbit number at epoch: 35304

The dashed part of the orbit path shows where the satellite is in the earth's shadow,  

DLR